QPF
0.02 0.01 0.01 0.01 0.01 0.01 0.01 0.01 0.01 0.01 0.01 0.02 0.03 0.03 0.02 0.03 0.04 0.02 0.01 0.01 0.01 0.01 0.02 0.02 0.02 0.01 0.01 0.01 0.02 0.01 0.01 0.01 0.01 0.01 0.01 0.02 0.02 0.02 0.03 0.04 0.05 0.06 0.02
0.01 0.01 0.01 0.01 0.01 0.01 0.02 0.02 0.01 0.01 0.02 0.02 0.03 0.03 0.02 0.02 0.02 0.02 0.01 0.01 0.02 0.02 0.02 0.02 0.03 0.02 0.02 0.02 0.02 0.01 0.01 0.01 0.01 0.01 0.02 0.02 0.02 0.03 0.04 0.06 0.04 0.03 0.02
0.02 0.02 0.02 0.02 0.02 0.01 0.01 0.01 0.01 0.02 0.02 0.03 0.03 0.03 0.03 0.02 0.02 0.02 0.01 0.01 0.02 0.02 0.02 0.02 0.03 0.03 0.03 0.03 0.04 0.03 0.02 0.02 0.02 0.01 0.02 0.02 0.02 0.02 0.04 0.04 0.03 0.03 0.02
0.04 0.03 0.03 0.02 0.01 0.02 0.02 0.02 0.03 0.03 0.03 0.03 0.04 0.04 0.04 0.03 0.02 0.02 0.02 0.02 0.02 0.01 0.02 0.03 0.05 0.05 0.04 0.05 0.06 0.06 0.05 0.03 0.02 0.01 0.02 0.03 0.03 0.02 0.03 0.03 0.02 0.02 0.02
0.05 0.04 0.04 0.03 0.03 0.04 0.04 0.03 0.03 0.03 0.05 0.06 0.06 0.04 0.04 0.03 0.02 0.02 0.01 0.02 0.02 0.01 0.02 0.03 0.06 0.06 0.06 0.06 0.08 0.07 0.06 0.06 0.04 0.02 0.02 0.03 0.03 0.04 0.02 0.02 0.01 0.01 0.01
0.05 0.05 0.05 0.04 0.03 0.05 0.05 0.04 0.04 0.04 0.06 0.06 0.03 0.02 0.02 0.02 0.02 0.02 0.02 0.01 0.02 0.02 0.02 0.02 0.02 0.03 0.06 0.08 0.09 0.09 0.09 0.08 0.07 0.05 0.04 0.03 0.03 0.03 0.02 0.02 0.01 0.01 0.01
0.03 0.03 0.04 0.05 0.05 0.04 0.04 0.05 0.05 0.05 0.05 0.06 0.03 0.01 0.01 0.01 0.01 0.02 0.02 0.03 0.02 0.02 0.02 0.03 0.03 0.03 0.03 0.05 0.06 0.07 0.09 0.11 0.10 0.09 0.07 0.05 0.04 0.03 0.02 0.01 0.01 0.01 0.02
0.02 0.03 0.05 0.05 0.05 0.05 0.04 0.05 0.06 0.05 0.05 0.06 0.05 0.04 0.01 0.01 0.01 0.01 0.02 0.02 0.03 0.03 0.03 0.05 0.05 0.04 0.04 0.04 0.05 0.05 0.07 0.10 0.13 0.13 0.10 0.08 0.05 0.04 0.03 0.02 0.02 0.02 0.02
0.04 0.06 0.07 0.08 0.07 0.06 0.05 0.07 0.09 0.09 0.05 0.06 0.07 0.06 0.02 0.01 0.01 0.01 0.01 0.01 0.02 0.03 0.04 0.04 0.05 0.06 0.05 0.05 0.07 0.08 0.08 0.08 0.11 0.12 0.14 0.13 0.09 0.07 0.06 0.04 0.03 0.02 0.02
0.04 0.05 0.07 0.09 0.08 0.06 0.05 0.05 0.07 0.10 0.08 0.05 0.05 0.04 0.03 0.03 0.03 0.02 0.01 0.02 0.02 0.03 0.03 0.03 0.03 0.05 0.05 0.04 0.05 0.08 0.12 0.09 0.08 0.10 0.12 0.13 0.13 0.10 0.07 0.04 0.03 0.03 0.04
0.03 0.03 0.04 0.06 0.09 0.06 0.05 0.04 0.06 0.09 0.08 0.05 0.04 0.03 0.04 0.05 0.04 0.02 0.01 0.01 0.02 0.02 0.02 0.02 0.02 0.03 0.04 0.04 0.04 0.06 0.08 0.11 0.12 0.09 0.08 0.11 0.12 0.11 0.07 0.04 0.04 0.04 0.03
0.03 0.03 0.04 0.04 0.05 0.05 0.04 0.04 0.04 0.06 0.06 0.05 0.04 0.03 0.05 0.05 0.04 0.03 0.01 0.01 0.01 0.01 0.01 0.02 0.02 0.03 0.04 0.05 0.05 0.04 0.04 0.07 0.07 0.07 0.07 0.09 0.11 0.10 0.09 0.08 0.08 0.07 0.07
0.04 0.03 0.03 0.04 0.04 0.05 0.04 0.03 0.03 0.03 0.04 0.04 0.04 0.03 0.03 0.03 0.04 0.05 0.04 0.02 0.01 0.01 0.01 0.01 0.02 0.02 0.03 0.03 0.03 0.03 0.03 0.05 0.06 0.06 0.07 0.06 0.06 0.07 0.08 0.08 0.08 0.08 0.08
0.03 0.03 0.03 0.04 0.05 0.04 0.04 0.04 0.03 0.03 0.03 0.03 0.04 0.04 0.04 0.04 0.06 0.05 0.03 0.03 0.02 0.01 0.01 0.01 0.01 0.01 0.02 0.02 0.03 0.04 0.04 0.06 0.06 0.06 0.05 0.05 0.06 0.06 0.07 0.07 0.06 0.06 0.06
0.02 0.02 0.02 0.04 0.05 0.04 0.04 0.05 0.06 0.05 0.04 0.04 0.03 0.03 0.03 0.03 0.05 0.05 0.04 0.03 0.02 0.01 0.01 0.01 0.02 0.03 0.03 0.03 0.03 0.03 0.02 0.03 0.04 0.04 0.03 0.03 0.04 0.04 0.04 0.04 0.05 0.05 0.04
0.03 0.02 0.02 0.03 0.04 0.04 0.05 0.07 0.07 0.06 0.06 0.06 0.04 0.03 0.02 0.02 0.04 0.05 0.04 0.04 0.03 0.03 0.02 0.02 0.02 0.04 0.04 0.03 0.03 0.02 0.01 0.03 0.03 0.03 0.03 0.04 0.04 0.05 0.05 0.04 0.05 0.05 0.05
0.04 0.03 0.03 0.04 0.05 0.07 0.08 0.09 0.07 0.07 0.06 0.06 0.06 0.04 0.03 0.05 0.04 0.05 0.05 0.05 0.05 0.05 0.03 0.02 0.02 0.03 0.04 0.04 0.04 0.03 0.02 0.02 0.02 0.03 0.03 0.04 0.04 0.05 0.05 0.05 0.05 0.04 0.05
0.05 0.05 0.06 0.07 0.07 0.08 0.08 0.07 0.06 0.06 0.05 0.05 0.06 0.05 0.05 0.05 0.04 0.05 0.05 0.05 0.04 0.05 0.04 0.04 0.03 0.03 0.04 0.05 0.04 0.03 0.03 0.03 0.02 0.02 0.02 0.03 0.04 0.04 0.05 0.05 0.05 0.05 0.05
0.07 0.07 0.08 0.07 0.06 0.07 0.08 0.08 0.07 0.07 0.06 0.07 0.08 0.06 0.04 0.06 0.05 0.06 0.07 0.06 0.04 0.03 0.02 0.02 0.02 0.02 0.03 0.06 0.05 0.04 0.04 0.03 0.03 0.02 0.03 0.03 0.03 0.04 0.05 0.06 0.06 0.06 0.06
0.05 0.06 0.07 0.07 0.07 0.07 0.07 0.08 0.09 0.07 0.08 0.09 0.09 0.09 0.06 0.05 0.04 0.05 0.06 0.04 0.03 0.03 0.02 0.02 0.01 0.01 0.02 0.03 0.04 0.03 0.03 0.03 0.02 0.01 0.02 0.03 0.04 0.04 0.04 0.04 0.04 0.06 0.08
0.05 0.05 0.06 0.05 0.06 0.06 0.06 0.08 0.08 0.06 0.07 0.07 0.05 0.05 0.05 0.05 0.04 0.04 0.03 0.02 0.03 0.02 0.03 0.03 0.02 0.02 0.02 0.02 0.02 0.02 0.02 0.02 0.02 0.02 0.03 0.03 0.04 0.04 0.03 0.04 0.05 0.06 0.06
0.06 0.05 0.04 0.05 0.05 0.06 0.08 0.08 0.07 0.05 0.05 0.04 0.03 0.03 0.04 0.06 0.06 0.04 0.03 0.03 0.03 0.03 0.04 0.04 0.04 0.03 0.03 0.03 0.03 0.02 0.02 0.03 0.02 0.02 0.02 0.02 0.02 0.03 0.04 0.05 0.06 0.07 0.07
0.10 0.07 0.05 0.06 0.07 0.08 0.11 0.13 0.08 0.05 0.04 0.03 0.03 0.03 0.04 0.04 0.05 0.03 0.03 0.03 0.03 0.03 0.04 0.04 0.04 0.03 0.03 0.03 0.02 0.02 0.02 0.02 0.02 0.02 0.03 0.03 0.03 0.05 0.06 0.07 0.08 0.07 0.06
0.07 0.06 0.05 0.06 0.08 0.08 0.09 0.06 0.04 0.04 0.03 0.03 0.03 0.04 0.04 0.03 0.04 0.04 0.03 0.04 0.04 0.05 0.06 0.06 0.05 0.04 0.03 0.02 0.02 0.02 0.02 0.03 0.04 0.06 0.06 0.07 0.06 0.06 0.06 0.05 0.05 0.04 0.03
0.10 0.07 0.06 0.06 0.06 0.06 0.05 0.04 0.03 0.04 0.03 0.03 0.04 0.04 0.04 0.05 0.06 0.06 0.05 0.04 0.05 0.07 0.07 0.06 0.04 0.02 0.02 0.02 0.03 0.03 0.04 0.05 0.05 0.05 0.05 0.06 0.05 0.03 0.03 0.03 0.04 0.04 0.03
0.14 0.11 0.09 0.07 0.06 0.06 0.06 0.06 0.05 0.06 0.05 0.04 0.05 0.06 0.06 0.05 0.04 0.05 0.05 0.05 0.05 0.05 0.04 0.03 0.02 0.02 0.02 0.03 0.03 0.03 0.03 0.02 0.02 0.02 0.02 0.02 0.02 0.02 0.02 0.02 0.02 0.02 0.02
MSLP
1017.71 1017.82 1017.84 1017.78 1017.71 1017.66 1017.69 1017.81 1018.01 1018.29 1018.60 1018.90 1019.17 1019.38 1019.55 1019.68 1019.80 1019.92 1020.07 1020.23 1020.42 1020.61 1020.80 1020.98 1021.14 1021.30 1021.46 1021.65 1021.86 1022.11 1022.37 1022.64 1022.90 1023.13 1023.33 1023.50 1023.64 1023.77 1023.90 1024.03 1024.17 1024.31 1024.46
1017.91 1018.04 1018.08 1018.05 1018.01 1018.00 1018.06 1018.21 1018.43 1018.72 1019.04 1019.35 1019.61 1019.82 1019.97 1020.07 1020.15 1020.22 1020.32 1020.45 1020.60 1020.78 1020.97 1021.16 1021.34 1021.52 1021.71 1021.90 1022.11 1022.33 1022.56 1022.80 1023.03 1023.25 1023.45 1023.63 1023.79 1023.94 1024.08 1024.22 1024.36 1024.49 1024.62
1017.98 1018.13 1018.21 1018.23 1018.25 1018.29 1018.40 1018.58 1018.84 1019.15 1019.47 1019.78 1020.04 1020.24 1020.37 1020.44 1020.48 1020.52 1020.57 1020.65 1020.77 1020.92 1021.10 1021.29 1021.50 1021.70 1021.90 1022.10 1022.30 1022.50 1022.71 1022.91 1023.11 1023.31 1023.49 1023.67 1023.85 1024.02 1024.19 1024.35 1024.50 1024.64 1024.76
1017.93 1018.11 1018.23 1018.32 1018.41 1018.52 1018.69 1018.91 1019.19 1019.52 1019.84 1020.15 1020.41 1020.59 1020.71 1020.77 1020.79 1020.79 1020.80 1020.83 1020.91 1021.03 1021.19 1021.38 1021.59 1021.80 1022.01 1022.22 1022.41 1022.60 1022.77 1022.94 1023.11 1023.28 1023.46 1023.64 1023.83 1024.02 1024.21 1024.40 1024.57 1024.72 1024.85
1017.82 1018.01 1018.18 1018.34 1018.51 1018.69 1018.92 1019.18 1019.48 1019.81 1020.13 1020.43 1020.68 1020.87 1020.99 1021.04 1021.05 1021.03 1021.01 1021.00 1021.04 1021.12 1021.24 1021.41 1021.60 1021.82 1022.03 1022.24 1022.43 1022.61 1022.76 1022.91 1023.05 1023.20 1023.36 1023.54 1023.74 1023.95 1024.16 1024.37 1024.56 1024.72 1024.86
1017.68 1017.89 1018.10 1018.32 1018.55 1018.80 1019.08 1019.37 1019.69 1020.01 1020.32 1020.61 1020.86 1021.06 1021.19 1021.26 1021.27 1021.25 1021.21 1021.17 1021.16 1021.19 1021.27 1021.40 1021.57 1021.76 1021.97 1022.18 1022.37 1022.54 1022.68 1022.81 1022.94 1023.07 1023.23 1023.40 1023.60 1023.82 1024.05 1024.26 1024.46 1024.63 1024.76
1017.55 1017.76 1018.00 1018.27 1018.56 1018.86 1019.17 1019.49 1019.80 1020.11 1020.41 1020.69 1020.94 1021.16 1021.32 1021.42 1021.46 1021.46 1021.41 1021.35 1021.30 1021.28 1021.29 1021.37 1021.49 1021.65 1021.84 1022.04 1022.23 1022.40 1022.55 1022.68 1022.80 1022.93 1023.08 1023.25 1023.45 1023.67 1023.89 1024.11 1024.30 1024.46 1024.58
1017.44 1017.64 1017.90 1018.20 1018.53 1018.87 1019.20 1019.52 1019.82 1020.11 1020.40 1020.67 1020.94 1021.18 1021.38 1021.54 1021.63 1021.65 1021.62 1021.55 1021.46 1021.38 1021.33 1021.33 1021.39 1021.51 1021.67 1021.85 1022.04 1022.22 1022.38 1022.53 1022.66 1022.80 1022.95 1023.12 1023.31 1023.51 1023.72 1023.92 1024.09 1024.22 1024.32
1017.34 1017.53 1017.80 1018.12 1018.47 1018.82 1019.15 1019.46 1019.75 1020.02 1020.28 1020.56 1020.84 1021.12 1021.38 1021.59 1021.74 1021.82 1021.81 1021.73 1021.61 1021.48 1021.36 1021.29 1021.28 1021.34 1021.46 1021.62 1021.81 1022.00 1022.18 1022.35 1022.51 1022.66 1022.82 1022.99 1023.18 1023.36 1023.55 1023.72 1023.86 1023.96 1024.02
1017.21 1017.40 1017.66 1017.99 1018.35 1018.70 1019.03 1019.32 1019.58 1019.83 1020.08 1020.35 1020.65 1020.97 1021.28 1021.56 1021.78 1021.91 1021.93 1021.86 1021.73 1021.55 1021.37 1021.23 1021.15 1021.15 1021.22 1021.36 1021.54 1021.74 1021.95 1022.15 1022.34 1022.52 1022.69 1022.87 1023.05 1023.22 1023.38 1023.52 1023.62 1023.69 1023.71
1017.03 1017.20 1017.47 1017.80 1018.15 1018.49 1018.81 1019.08 1019.31 1019.54 1019.77 1020.04 1020.36 1020.71 1021.08 1021.42 1021.70 1021.88 1021.94 1021.90 1021.75 1021.55 1021.32 1021.12 1020.98 1020.93 1020.96 1021.07 1021.25 1021.46 1021.68 1021.91 1022.13 1022.34 1022.53 1022.72 1022.90 1023.06 1023.21 1023.32 1023.40 1023.44 1023.44
1016.75 1016.92 1017.19 1017.51 1017.85 1018.19 1018.48 1018.73 1018.95 1019.15 1019.37 1019.64 1019.96 1020.34 1020.74 1021.13 1021.46 1021.69 1021.80 1021.78 1021.65 1021.44 1021.19 1020.96 1020.78 1020.68 1020.68 1020.77 1020.93 1021.14 1021.38 1021.63 1021.87 1022.11 1022.32 1022.53 1022.72 1022.88 1023.02 1023.12 1023.19 1023.21 1023.20
1016.35 1016.53 1016.80 1017.12 1017.46 1017.78 1018.06 1018.29 1018.49 1018.67 1018.88 1019.14 1019.46 1019.85 1020.27 1020.69 1021.06 1021.34 1021.49 1021.51 1021.41 1021.22 1020.97 1020.73 1020.54 1020.42 1020.39 1020.46 1020.60 1020.81 1021.05 1021.31 1021.57 1021.82 1022.06 1022.28 1022.48 1022.66 1022.81 1022.92 1022.99 1023.02 1023.01
1015.85 1016.04 1016.30 1016.62 1016.95 1017.26 1017.53 1017.75 1017.94 1018.12 1018.31 1018.56 1018.88 1019.26 1019.69 1020.13 1020.52 1020.83 1021.03 1021.10 1021.04 1020.89 1020.68 1020.47 1020.28 1020.16 1020.12 1020.17 1020.30 1020.49 1020.72 1020.98 1021.24 1021.50 1021.75 1021.99 1022.21 1022.40 1022.56 1022.70 1022.79 1022.84 1022.87
1015.25 1015.45 1015.71 1016.02 1016.34 1016.65 1016.92 1017.14 1017.32 1017.50 1017.69 1017.93 1018.24 1018.61 1019.03 1019.47 1019.88 1020.22 1020.46 1020.58 1020.59 1020.50 1020.36 1020.19 1020.04 1019.94 1019.91 1019.95 1020.06 1020.22 1020.43 1020.66 1020.91 1021.17 1021.42 1021.67 1021.90 1022.11 1022.30 1022.46 1022.59 1022.68 1022.74
1014.59 1014.78 1015.04 1015.34 1015.65 1015.95 1016.22 1016.45 1016.65 1016.84 1017.03 1017.27 1017.57 1017.93 1018.34 1018.76 1019.18 1019.54 1019.82 1020.00 1020.09 1020.09 1020.03 1019.94 1019.85 1019.79 1019.78 1019.82 1019.91 1020.04 1020.21 1020.41 1020.63 1020.86 1021.11 1021.35 1021.59 1021.82 1022.04 1022.23 1022.38 1022.52 1022.62
1013.89 1014.07 1014.31 1014.59 1014.89 1015.19 1015.47 1015.71 1015.94 1016.14 1016.36 1016.60 1016.90 1017.24 1017.63 1018.05 1018.46 1018.85 1019.17 1019.41 1019.58 1019.68 1019.72 1019.73 1019.72 1019.72 1019.73 1019.78 1019.85 1019.95 1020.09 1020.24 1020.42 1020.62 1020.84 1021.08 1021.32 1021.56 1021.79 1022.00 1022.19 1022.36 1022.50
1013.19 1013.33 1013.54 1013.79 1014.07 1014.37 1014.65 1014.92 1015.17 1015.41 1015.65 1015.92 1016.22 1016.56 1016.94 1017.34 1017.76 1018.16 1018.52 1018.83 1019.08 1019.28 1019.43 1019.54 1019.62 1019.69 1019.75 1019.81 1019.88 1019.95 1020.04 1020.16 1020.29 1020.46 1020.65 1020.86 1021.10 1021.34 1021.58 1021.81 1022.02 1022.21 1022.39
1012.48 1012.59 1012.74 1012.96 1013.21 1013.50 1013.79 1014.08 1014.36 1014.63 1014.91 1015.20 1015.51 1015.85 1016.23 1016.63 1017.04 1017.46 1017.86 1018.23 1018.57 1018.87 1019.13 1019.35 1019.53 1019.68 1019.79 1019.88 1019.95 1020.01 1020.07 1020.14 1020.23 1020.36 1020.52 1020.72 1020.94 1021.18 1021.43 1021.66 1021.89 1022.10 1022.29
1011.80 1011.84 1011.95 1012.11 1012.33 1012.60 1012.89 1013.19 1013.50 1013.80 1014.11 1014.42 1014.75 1015.10 1015.47 1015.87 1016.29 1016.72 1017.16 1017.59 1018.01 1018.41 1018.78 1019.10 1019.38 1019.61 1019.79 1019.92 1020.00 1020.06 1020.10 1020.15 1020.22 1020.32 1020.46 1020.65 1020.86 1021.10 1021.34 1021.59 1021.82 1022.04 1022.25
1011.15 1011.13 1011.17 1011.29 1011.46 1011.69 1011.97 1012.27 1012.58 1012.91 1013.24 1013.57 1013.91 1014.27 1014.64 1015.04 1015.47 1015.92 1016.39 1016.87 1017.37 1017.85 1018.32 1018.75 1019.13 1019.45 1019.70 1019.88 1020.00 1020.07 1020.12 1020.16 1020.22 1020.31 1020.44 1020.62 1020.84 1021.08 1021.34 1021.59 1021.83 1022.05 1022.27
1010.55 1010.48 1010.46 1010.51 1010.64 1010.82 1011.06 1011.35 1011.65 1011.98 1012.31 1012.65 1012.99 1013.35 1013.72 1014.12 1014.55 1015.02 1015.52 1016.06 1016.61 1017.18 1017.74 1018.27 1018.75 1019.16 1019.48 1019.73 1019.90 1020.01 1020.08 1020.13 1020.20 1020.30 1020.45 1020.64 1020.87 1021.13 1021.40 1021.67 1021.92 1022.16 1022.39
1010.04 1009.92 1009.85 1009.84 1009.91 1010.04 1010.23 1010.47 1010.74 1011.04 1011.36 1011.68 1012.02 1012.37 1012.74 1013.13 1013.56 1014.04 1014.57 1015.15 1015.76 1016.40 1017.04 1017.66 1018.23 1018.73 1019.14 1019.46 1019.70 1019.86 1019.97 1020.06 1020.16 1020.28 1020.46 1020.67 1020.93 1021.22 1021.52 1021.82 1022.09 1022.35 1022.59
1009.66 1009.50 1009.38 1009.32 1009.33 1009.39 1009.52 1009.69 1009.92 1010.17 1010.44 1010.74 1011.05 1011.38 1011.73 1012.12 1012.55 1013.04 1013.58 1014.19 1014.86 1015.56 1016.27 1016.97 1017.63 1018.22 1018.71 1019.11 1019.41 1019.64 1019.81 1019.94 1020.08 1020.25 1020.46 1020.72 1021.02 1021.35 1021.68 1022.02 1022.33 1022.62 1022.88
1009.42 1009.25 1009.10 1008.99 1008.94 1008.93 1008.98 1009.08 1009.23 1009.42 1009.64 1009.88 1010.16 1010.45 1010.79 1011.16 1011.58 1012.08 1012.64 1013.27 1013.97 1014.72 1015.50 1016.27 1017.00 1017.66 1018.24 1018.72 1019.10 1019.39 1019.62 1019.81 1020.00 1020.21 1020.47 1020.77 1021.11 1021.48 1021.87 1022.25 1022.60 1022.93 1023.22
1009.34 1009.17 1009.00 1008.86 1008.75 1008.67 1008.64 1008.66 1008.73 1008.84 1009.00 1009.19 1009.41 1009.68 1009.98 1010.34 1010.75 1011.24 1011.81 1012.46 1013.19 1013.97 1014.79 1015.62 1016.41 1017.14 1017.79 1018.34 1018.78 1019.14 1019.43 1019.68 1019.92 1020.17 1020.47 1020.81 1021.20 1021.62 1022.05 1022.48 1022.88 1023.24 1023.57
Thickness
5744 5743 5743 5743 5742 5742 5742 5741 5740 5739 5739 5738 5737 5736 5735 5734 5732 5731 5730 5729 5727 5726 5724 5722 5721 5719 5718 5717 5716 5714 5713 5712 5711 5710 5708 5707 5706 5705 5705 5704 5703 5703 5702
5744 5743 5742 5742 5742 5742 5741 5740 5740 5739 5739 5738 5737 5736 5735 5734 5733 5732 5730 5729 5728 5726 5724 5723 5722 5720 5719 5718 5716 5715 5714 5712 5711 5710 5708 5707 5706 5705 5704 5704 5703 5702 5701
5744 5743 5742 5742 5742 5742 5741 5740 5739 5739 5739 5738 5737 5737 5735 5734 5733 5732 5731 5730 5729 5727 5725 5724 5723 5721 5720 5719 5717 5716 5714 5713 5712 5710 5709 5707 5706 5705 5704 5703 5703 5702 5701
5744 5743 5742 5742 5742 5741 5741 5740 5739 5738 5737 5737 5736 5736 5736 5735 5734 5733 5732 5731 5729 5728 5727 5725 5724 5723 5721 5720 5719 5717 5715 5714 5712 5711 5709 5708 5706 5705 5704 5703 5702 5701 5701
5745 5744 5743 5743 5742 5741 5740 5740 5739 5737 5735 5735 5736 5736 5736 5736 5735 5734 5733 5732 5730 5729 5728 5727 5725 5724 5723 5721 5720 5719 5717 5715 5713 5712 5710 5708 5707 5705 5704 5704 5703 5702 5701
5746 5744 5743 5742 5741 5741 5740 5739 5738 5737 5735 5735 5736 5736 5736 5736 5736 5735 5734 5733 5732 5731 5729 5728 5727 5725 5724 5723 5722 5720 5719 5717 5715 5713 5711 5709 5707 5706 5705 5704 5703 5702 5701
5747 5745 5744 5742 5741 5740 5739 5739 5737 5736 5734 5734 5732 5732 5734 5736 5736 5736 5735 5734 5733 5732 5731 5730 5728 5726 5725 5724 5723 5722 5720 5718 5716 5714 5712 5711 5709 5707 5706 5705 5704 5703 5702
5748 5746 5744 5743 5742 5740 5739 5738 5737 5735 5734 5734 5731 5727 5725 5728 5733 5736 5736 5735 5735 5733 5732 5731 5730 5728 5727 5726 5725 5723 5721 5720 5718 5717 5715 5713 5711 5709 5708 5706 5705 5704 5702
5748 5747 5745 5744 5742 5741 5739 5739 5738 5735 5732 5732 5732 5728 5722 5719 5725 5732 5734 5735 5735 5734 5733 5732 5731 5730 5729 5727 5726 5725 5723 5722 5721 5719 5717 5715 5713 5711 5709 5708 5706 5705 5704
5749 5748 5746 5744 5743 5741 5740 5740 5739 5737 5734 5731 5731 5731 5729 5727 5722 5723 5729 5733 5733 5733 5733 5733 5733 5731 5730 5728 5727 5726 5725 5723 5722 5720 5719 5717 5715 5713 5711 5709 5707 5706 5704
5749 5748 5746 5744 5743 5742 5741 5740 5739 5737 5735 5733 5731 5730 5728 5726 5724 5721 5721 5726 5729 5732 5733 5733 5733 5732 5731 5729 5728 5727 5726 5724 5723 5721 5720 5718 5716 5714 5712 5710 5708 5707 5705
5750 5748 5747 5745 5744 5742 5741 5740 5739 5738 5736 5734 5732 5731 5728 5725 5723 5721 5719 5721 5723 5728 5731 5731 5731 5731 5730 5729 5728 5727 5726 5725 5724 5722 5720 5719 5717 5715 5713 5711 5709 5707 5705
5749 5748 5747 5745 5744 5743 5741 5740 5739 5738 5736 5734 5732 5731 5729 5728 5727 5724 5721 5720 5720 5724 5727 5729 5730 5730 5729 5728 5727 5726 5725 5724 5723 5721 5720 5718 5716 5715 5713 5711 5709 5707 5705
5750 5749 5747 5746 5745 5744 5742 5740 5739 5738 5736 5735 5733 5731 5729 5729 5727 5725 5722 5719 5717 5719 5721 5723 5726 5727 5726 5726 5725 5724 5723 5723 5721 5720 5718 5716 5715 5713 5711 5710 5708 5706 5704
5752 5750 5748 5746 5745 5743 5742 5740 5738 5737 5735 5734 5733 5731 5729 5728 5727 5725 5723 5721 5716 5713 5715 5719 5721 5723 5723 5722 5722 5721 5720 5719 5718 5717 5716 5714 5713 5711 5710 5708 5706 5704 5702
5752 5749 5748 5746 5744 5743 5741 5739 5737 5736 5733 5732 5731 5729 5728 5726 5725 5723 5721 5720 5718 5715 5712 5715 5716 5718 5718 5719 5718 5717 5717 5716 5715 5713 5712 5711 5710 5709 5707 5705 5703 5701 5699
5752 5749 5747 5745 5743 5741 5739 5737 5735 5734 5731 5729 5728 5726 5725 5724 5722 5720 5718 5717 5715 5713 5710 5712 5713 5714 5714 5713 5713 5712 5712 5711 5710 5709 5708 5707 5706 5705 5703 5701 5699 5697 5696
5751 5748 5746 5743 5741 5739 5737 5735 5733 5732 5729 5727 5725 5724 5722 5722 5719 5717 5715 5714 5712 5711 5708 5706 5707 5708 5708 5708 5707 5707 5706 5706 5705 5704 5703 5702 5701 5700 5698 5697 5695 5692 5691
5749 5747 5744 5741 5738 5736 5734 5733 5731 5729 5727 5724 5722 5720 5719 5717 5715 5714 5712 5710 5709 5707 5705 5702 5701 5701 5701 5701 5701 5700 5700 5699 5699 5698 5697 5696 5695 5694 5692 5691 5689 5687 5685
5748 5744 5741 5738 5736 5734 5732 5730 5727 5725 5723 5721 5719 5717 5715 5714 5712 5710 5709 5706 5704 5702 5700 5698 5696 5695 5694 5694 5694 5693 5692 5692 5691 5691 5690 5689 5688 5686 5685 5683 5682 5680 5678
5745 5742 5739 5736 5733 5730 5728 5726 5723 5721 5718 5716 5714 5712 5711 5710 5709 5707 5705 5703 5700 5697 5695 5693 5690 5689 5688 5687 5686 5685 5684 5684 5684 5683 5682 5681 5679 5678 5676 5674 5673 5671 5669
5741 5739 5736 5732 5729 5726 5724 5722 5720 5717 5714 5712 5709 5707 5706 5704 5703 5702 5700 5698 5696 5693 5690 5687 5684 5682 5681 5680 5679 5679 5677 5676 5675 5674 5672 5672 5670 5669 5667 5665 5663 5662 5659
5737 5733 5731 5728 5725 5722 5720 5718 5715 5713 5710 5707 5704 5702 5700 5699 5697 5696 5694 5692 5689 5687 5685 5682 5679 5677 5675 5674 5673 5671 5669 5668 5666 5665 5663 5662 5661 5659 5656 5654 5653 5652 5649
5732 5728 5725 5722 5719 5716 5714 5712 5709 5706 5703 5700 5698 5696 5694 5692 5691 5689 5687 5684 5682 5679 5677 5675 5672 5671 5670 5668 5666 5665 5662 5660 5659 5656 5653 5651 5650 5648 5646 5644 5642 5640 5638
5726 5723 5719 5716 5712 5710 5707 5705 5702 5699 5695 5692 5690 5688 5686 5684 5682 5681 5680 5676 5673 5670 5668 5666 5664 5662 5661 5660 5659 5657 5654 5652 5650 5647 5643 5641 5639 5637 5635 5633 5631 5628 5626
5719 5716 5712 5708 5706 5703 5700 5698 5696 5693 5688 5684 5681 5679 5676 5675 5673 5672 5670 5667 5664 5661 5659 5657 5655 5654 5652 5651 5649 5646 5644 5642 5639 5636 5633 5630 5628 5625 5625 5623 5619 5616 5614